Flag for United Arab Emirates Weather past 2 weeks in Dubai, Dubai, United Arab Emirates

Now
97 °F

Passing clouds.


Feels Like: 96 °F
Forecast: 89 / 104 °F
Wind: 6 mph from Northeast

Location: Dubai International Airport

Current Time: May 30, 2015 at 9:25:58 PM

Latest Report: May 30, 2015 at 9:00 PM


Visibility: N/A

Pressure: 29.71 "Hg

Humidity: 27%

Dew point: 57 °F

Location of DubaiLocation

Historic Weather in Dubai — Graph

°F

Dubai temperature yesterday

Maximum temperature yesterday: 102 °F (at 1:00 PM)
Minimum temperature yesterday: 79 °F (at 5:00 AM)
Average temperature yesterday: 90 °F

Past Weeks' High & Low Weather Summary

 TemperatureHumidityPressure
High111 °F (May 30, 1:00 PM)84% (May 16, 5:00 AM)29.77 "Hg (May 16, 5:00 AM)
Low77 °F (May 19, 4:00 AM)7% (May 30, 1:00 PM)29.59 "Hg (May 28, 5:00 PM)
Average92 °F39%29.68 "Hg
* Reported May 15 8:00 PM — May 30 8:00 PM, Dubai, Weather by CustomWeather, © 2015

Note: Actual official high and low records may vary slightly from our data, if they occured in-between our weather recording intervals... More about our weather records

Advertising

Dubai weather history for previous 24 hours

 ConditionsComfort  
Time TempWeatherWind HumidityBarometerVisibility
8:00 PM
Sat, May 30
99 °FPassing clouds.8 mph25%29.71 "HgN/A
7:00 PM100 °FPassing clouds.8 mph16%29.71 "HgN/A
6:00 PM100 °FPassing clouds.9 mph18%29.68 "HgN/A
5:00 PM100 °FClear.13 mph27%29.68 "Hg5 mi
4:00 PM104 °FClear.16 mph20%29.68 "Hg5 mi
3:00 PM108 °FPassing clouds.16 mph13%29.68 "HgN/A
2:00 PM108 °FSunny.16 mph19%29.71 "Hg10 mi
1:00 PM111 °FPassing clouds.6 mph7%29.71 "HgN/A
12:00 PM109 °FPassing clouds.7 mph8%29.74 "HgN/A
11:00 AM108 °FPassing clouds.10 mph11%29.74 "HgN/A
10:00 AM104 °FPassing clouds.9 mph16%29.77 "HgN/A
9:00 AM99 °FPassing clouds.9 mph19%29.77 "HgN/A
8:00 AM97 °FClear.10 mph17%29.74 "Hg6 mi
7:04 AM91 °FClear.14 mph18%29.74 "Hg5 mi
7:00 AM90 °FClear.6 mph22%29.71 "Hg5 mi
6:00 AM88 °FPassing clouds.6 mph22%29.71 "HgN/A
5:00 AM88 °FPassing clouds.6 mph24%29.68 "HgN/A
4:00 AM90 °FPassing clouds.8 mph21%29.68 "HgN/A
3:00 AM90 °FPassing clouds.10 mph29%29.65 "HgN/A
2:00 AM88 °FPassing clouds.5 mph35%29.65 "HgN/A
1:00 AM90 °FClear.9 mph36%29.68 "Hg10 mi
12:00 AM90 °FClear.6 mph38%29.68 "Hg10 mi
11:00 PM
Fri, May 29
90 °FPassing clouds.5 mph43%29.68 "HgN/A
10:00 PM90 °FClear.7 mph49%29.68 "Hg10 mi
9:00 PM91 °FClear.8 mph44%29.65 "Hg10 mi
Weather by CustomWeather, © 2015

See weather overviewHow to use our weather pages